Snowfall_Accumulation
0.0 0.0 0.0 0.0 0.0 0.0 0.0 0.0 0.0 0.0 0.0 0.0 0.0 0.0 0.0 0.0 0.0 0.0 0.0 0.0 0.0 0.0 0.0 0.0 0.0 0.0 0.0 0.0 0.0 0.0 0.0 0.1 0.1 0.1 0.1 0.1 0.0 0.0 0.0 0.0 0.0 0.0 0.0
0.0 0.0 0.0 0.0 0.0 0.0 0.0 0.0 0.0 0.0 0.0 0.0 0.0 0.0 0.0 0.0 0.0 0.0 0.0 0.0 0.0 0.0 0.0 0.0 0.0 0.0 0.0 0.0 0.0 0.0 0.0 0.1 0.1 0.1 0.2 0.2 0.1 0.2 0.2 0.2 0.1 0.0 0.1
0.0 0.0 0.0 0.0 0.0 0.0 0.0 0.0 0.0 0.0 0.0 0.0 0.0 0.0 0.0 0.0 0.0 0.0 0.0 0.0 0.0 0.0 0.0 0.0 0.0 0.1 0.1 0.1 0.1 0.1 0.0 0.2 0.3 0.5 0.4 0.2 0.2 0.2 0.4 0.2 0.1 0.1 0.0
0.1 0.1 0.1 0.0 0.0 0.0 0.0 0.1 0.0 0.0 0.0 0.0 0.1 0.0 0.0 0.0 0.0 0.0 0.0 0.0 0.0 0.0 0.0 0.0 0.1 0.2 0.2 0.3 0.4 0.6 1.0 0.9 0.8 0.6 0.8 0.9 0.6 0.4 0.2 0.2 0.1 0.1 0.1
0.1 0.1 0.1 0.1 0.1 0.0 0.0 0.0 0.0 0.1 0.0 0.0 0.1 0.1 0.0 0.0 0.0 0.0 0.0 0.0 0.0 0.0 0.0 0.1 0.3 0.3 0.4 0.5 0.8 1.0 1.0 0.9 1.2 1.5 1.4 1.0 0.7 0.3 0.3 0.2 0.3 0.2 0.1
0.1 0.1 0.1 0.1 0.0 0.0 0.0 0.1 0.0 0.0 0.0 0.1 0.0 0.0 0.1 0.0 0.0 0.1 0.0 0.0 0.1 0.1 0.3 0.7 0.8 0.9 0.8 0.6 0.4 0.3 0.6 1.5 1.9 1.6 1.3 0.9 0.5 0.4 0.3 0.6 0.7 0.8 0.6
0.1 0.1 0.0 0.0 0.0 0.0 0.0 0.1 0.1 0.0 0.0 0.1 0.1 0.1 0.1 0.1 0.0 0.0 0.1 0.2 0.4 0.5 1.1 1.3 1.3 1.1 0.9 0.6 0.6 0.4 0.7 0.7 0.7 0.8 0.9 0.5 0.4 0.4 0.7 1.2 1.4 1.3 0.9
0.1 0.0 0.1 0.0 0.1 0.0 0.1 0.1 0.1 0.2 0.5 0.4 0.3 0.3 0.2 0.1 0.1 0.3 0.5 1.0 1.2 1.5 1.4 1.4 1.3 0.9 0.7 0.6 0.8 0.9 0.5 0.2 0.2 0.2 0.3 0.3 0.3 0.5 0.9 1.6 1.5 1.4 0.6
0.7 0.6 0.6 0.4 0.2 0.2 0.3 1.1 1.7 2.1 2.2 2.5 2.5 2.2 2.2 0.8 1.3 1.5 1.9 1.8 1.5 1.3 0.8 0.6 0.5 0.4 0.3 0.5 0.8 0.7 0.3 0.1 0.1 0.1 0.3 0.4 0.4 0.4 0.5 0.9 1.4 2.2 1.9
0.9 0.6 0.7 0.8 1.1 1.7 2.1 2.4 3.0 3.1 3.3 3.6 3.9 3.6 3.2 2.6 1.6 1.0 0.9 0.9 0.7 0.6 0.5 0.2 0.1 0.2 0.5 0.9 0.9 0.9 0.8 0.2 0.3 0.2 0.2 0.1 0.1 0.1 0.1 0.4 1.3 3.3 3.6
0.7 0.7 0.5 0.8 1.2 1.7 1.8 1.8 2.1 2.3 2.4 2.2 2.2 1.9 1.5 1.0 0.3 0.3 0.3 0.4 0.5 0.5 0.5 0.4 0.2 0.4 0.7 1.0 1.1 0.9 1.1 1.1 0.8 0.6 0.4 0.3 0.2 0.2 0.1 0.1 0.5 2.5 4.8
0.4 0.4 0.5 0.5 0.7 0.7 0.7 1.0 1.1 1.2 1.1 1.0 0.7 0.4 0.2 0.1 0.2 0.2 0.2 0.4 0.5 0.8 0.6 0.5 0.5 0.9 1.1 0.8 0.7 0.7 0.8 1.1 1.1 1.2 1.2 0.8 0.5 0.5 0.3 0.3 0.4 0.6 1.3
0.2 0.2 0.2 0.2 0.4 0.3 0.2 0.3 0.3 0.3 0.3 0.3 0.3 0.2 0.2 0.1 0.1 0.1 0.2 0.4 0.6 0.8 0.6 0.7 0.9 1.0 1.0 0.8 0.8 0.6 0.8 0.9 1.2 1.6 1.7 1.0 0.6 0.6 0.5 0.6 0.7 0.7 0.6
0.2 0.2 0.2 0.2 0.3 0.2 0.1 0.1 0.2 0.3 0.4 0.4 0.5 0.4 0.3 0.2 0.2 0.2 0.2 0.4 0.6 0.8 0.7 0.6 0.7 0.7 0.8 0.7 0.8 1.0 0.9 1.0 1.3 1.7 1.5 1.1 0.9 1.1 1.2 1.2 1.7 2.0 2.4
0.2 0.2 0.1 0.2 0.3 0.3 0.3 0.1 0.2 0.3 0.4 0.7 0.7 0.7 0.9 0.6 0.4 0.7 1.2 1.2 1.2 1.4 1.5 1.3 1.2 1.1 1.2 1.2 1.3 1.2 1.2 1.1 1.5 1.6 1.8 2.2 2.0 2.0 1.8 1.7 2.5 3.5 4.3
0.3 0.3 0.3 0.4 0.3 0.4 0.4 0.3 0.1 0.2 0.2 0.4 0.5 0.7 0.8 0.6 0.7 1.1 1.3 1.3 1.2 1.4 1.9 2.3 1.9 1.8 1.6 1.8 1.9 2.0 1.9 2.0 2.2 2.5 3.2 3.3 3.6 3.9 3.3 2.8 3.1 4.2 4.4
0.5 0.6 0.6 0.6 0.6 0.7 0.6 0.6 0.6 0.3 0.2 0.2 0.3 0.3 0.5 0.6 0.7 1.0 1.1 1.3 1.2 1.2 2.0 1.9 1.7 1.8 1.9 2.1 2.2 2.5 2.8 2.5 2.9 3.7 4.4 4.3 4.9 5.2 5.0 4.7 4.6 4.9 4.8
0.5 0.6 0.6 0.6 0.7 0.8 0.8 0.9 0.8 0.9 0.8 0.4 0.4 0.4 0.5 0.6 0.8 0.9 1.0 1.4 1.4 1.0 1.4 1.7 2.0 1.9 2.3 2.4 2.6 3.1 3.0 3.0 3.7 4.5 5.0 5.2 5.8 6.6 6.9 6.2 5.6 5.8 6.1
0.5 0.5 0.6 0.8 0.8 0.9 1.0 1.1 1.1 1.2 1.1 0.9 0.8 0.8 0.7 0.7 0.7 0.9 1.2 1.7 2.0 1.9 1.6 1.8 2.0 2.2 2.6 3.0 3.1 3.5 3.9 4.4 4.4 5.0 5.5 5.6 6.4 7.6 7.4 6.2 6.3 6.4 7.1
0.6 0.7 0.9 1.0 1.0 1.2 1.3 1.5 1.5 1.5 1.4 1.3 1.2 1.1 1.2 1.8 2.0 1.5 1.5 1.6 1.8 1.8 1.7 2.0 2.1 2.6 3.1 3.5 3.7 4.2 4.7 4.5 5.1 5.4 5.6 5.8 6.3 7.6 7.9 7.0 7.1 7.5 6.9
0.9 1.0 1.2 1.3 1.3 1.4 1.6 1.7 1.9 1.9 1.9 1.7 1.4 1.3 2.0 2.8 2.6 2.0 2.1 2.0 2.2 2.3 2.3 2.6 2.9 3.0 3.2 3.5 4.0 4.4 4.8 4.7 4.9 5.7 5.8 6.2 6.9 7.7 7.2 7.4 7.2 7.4 8.1
1.3 1.4 1.6 1.7 1.7 1.9 2.1 2.2 2.2 2.1 2.0 1.9 1.7 1.5 2.0 2.4 2.3 2.4 2.4 2.4 2.2 2.5 2.9 3.2 3.3 3.0 3.5 4.4 5.4 6.0 5.4 4.9 4.8 5.6 6.4 6.5 6.9 7.3 7.6 8.1 8.3 8.8 9.1
1.7 1.7 1.7 1.8 1.9 2.1 2.0 2.1 2.1 2.0 2.1 2.0 2.1 2.1 2.4 2.6 2.4 2.7 2.6 2.5 2.4 2.5 2.6 3.0 3.5 3.3 3.3 4.2 5.2 6.9 7.2 5.9 5.3 6.5 8.5 8.8 8.4 8.8 9.4 9.8 9.1 8.9 8.0
2.0 2.0 2.2 2.2 2.1 2.2 2.3 2.2 2.2 2.3 2.2 2.5 2.4 2.3 2.4 2.4 2.4 2.6 2.6 2.7 2.9 2.7 2.9 3.0 3.3 3.3 3.5 4.3 4.5 5.0 5.7 6.7 8.5 10.0 11.6 13.9 13.2 11.4 10.8 10.0 8.7 8.1 7.9
2.1 2.3 2.5 2.8 2.7 2.8 2.8 2.8 2.6 2.5 2.8 2.8 2.7 2.6 2.6 2.4 2.4 2.5 2.5 2.7 2.8 2.9 2.7 3.0 3.4 3.6 3.7 4.0 4.2 4.5 4.8 6.3 9.2 12.9 14.8 14.4 12.6 10.8 10.5 10.0 8.8 8.3 8.2
2.5 2.8 3.2 3.2 3.3 3.4 3.4 3.5 3.2 3.2 3.4 3.4 3.5 3.3 3.2 3.1 2.9 2.8 3.1 3.2 3.3 3.2 3.0 2.9 3.0 3.6 4.0 4.0 3.7 3.8 4.7 5.7 6.5 8.5 12.2 13.3 12.0 10.4 10.5 11.1 9.8 9.2 9.1